Regional Weather Roundup
Issued by NWS Charleston, SC

Current Version | Previous Version | Graphics & Text | Print | Product List | Glossary On
Versions: 1 2 3 4 5 6 7 8 9 10 11 12 13 14 15 16 17 18 19 20 21 22 23 24 25 26 27 28 29 30 31 32 33 34 35 36 37 38 39 40 41 42 43 44 45 46 47 48 49 50
000
ASUS42 KCHS 261627
RWRCHS

REGIONAL WEATHER ROUNDUP
NATIONAL WEATHER SERVICE CHARLESTON SC
1200 PM EDT SUN MAR 26 2017

NOTE: "FAIR" INDICATES FEW OR NO CLOUDS BELOW 12,000 FEET WITH NO
SIGNIFICANT WEATHER AND/OR OBSTRUCTIONS TO VISIBILITY.

NOT ALL STATIONS ARE QUALITY CONTROLLED. USE DATA WITH CAUTION...
ESPECIALLY DEWPOINT OBSERVATIONS.

SCZ027-030-031-034>040-042>050-261700-
...SOUTHEAST SOUTH CAROLINA...

CITY           SKY/WX    TMP DP  RH WIND       PRES   REMARKS
N CHARLESTON   MOSUNNY   77  51  40 S12G18    30.22R
WATERFRONT PRK   N/A     68  60  75 SE7       30.20F
JOHNS ISLAND   FAIR      77  55  47 S9        30.22S
PINOPOLIS        N/A     73  55  53 SE5       30.14S
MONCKS CORNER  CLOUDY    73  48  40 SW7       30.21F
SUMMERVILLE    PTSUNNY   75  52  43 SE7       30.22S
BEAUFORT MCAS  MOSUNNY   75  61  61 SE10      30.22R
BEAUFORT ARPT  PTSUNNY   73  59  60 S12G17    30.21F
HILTON HEAD IS SUNNY     73  61  64 SE6       30.22R
WALTERBORO     PTSUNNY   77  55  47 S10       30.21F
ALLENDALE      FAIR      75  55  50 S12G18    30.18F

...SOUTHERN MIDLANDS AND PEE DEE...

CITY           SKY/WX    TMP DP  RH WIND       PRES   REMARKS
GEORGETOWN     FAIR      73  54  49 SE15      30.23F
KINGSTREE      CLOUDY    73  50  43 S5        30.22S
ORANGEBURG     MOSUNNY   73  56  54 S12G18    30.21F
BARNWELL       FAIR      75  59  57 SE14      30.19F
AIKEN          PTSUNNY   72  55  56 S9        30.21F
MANNING        PTSUNNY   72  54  53 SW6       30.22F
COLUMBIA       PTSUNNY   74  55  51 S15G22    30.19F
SUMTER         PTSUNNY   73  55  52 S9        30.19F
FLORENCE       CLOUDY    74  55  51 S10       30.22F
MYRTLE BEACH   PTSUNNY   73  54  49 S9        30.24F
N MYRTLE BEACH PTSUNNY   71  57  61 SE7       30.24S

$$

GAZ063-065-086>088-099>101-113>116-118-119-134>141-150-261700-
...SOUTHEAST GEORGIA...

CITY           SKY/WX    TMP DP  RH WIND       PRES   REMARKS
SAVANNAH ARPT  PTSUNNY   76  57  51 S13       30.20F
HUNTER AAF     MOSUNNY   77  63  62 SE14G20   30.17F
FORT STEWART   MOSUNNY   77  57  50 S8        30.17F
STATESBORO     PTSUNNY   77  62  59 S8G16     30.19S
SYLVANIA       MOSUNNY  N/A N/A N/A S8G16     30.19F
CLAXTON        FAIR      76  76 100 CALM      30.18F

...CSRA...CENTRAL AND FAR SOUTHEAST GEORGIA...

CITY           SKY/WX    TMP DP  RH WIND       PRES   REMARKS
THOMSON        CLOUDY    71  58  65 SW9G17    30.22F
AUGUSTA-BUSH   CLOUDY    74  59  59 SW10      30.17F
AUGUSTA-DANIEL CLOUDY    73  55  53 S15       30.18F
SWAINSBORO     CLOUDY    73  55  53 S12       30.19S
VIDALIA        CLOUDY    75  55  50 S9        30.18F
EASTMAN        PTSUNNY   76  49  39 SW6       30.19F
HAZLEHURST     FAIR      77  61  58 SE9       30.17S
ALMA           MOSUNNY   77  59  53 S12       30.18S
WAYCROSS       CLOUDY    81  61  51 SE9       30.17F
JESUP          FAIR      79  54  41 SW7       30.18F
BAXLEY         CLOUDY    79  61  53 S9        30.17F
BRUNSWICK      MOSUNNY   77  63  61 E8        30.19F
SAINT SIMONS   SUNNY     74  60  61 SE6       30.20R

$$

SCZ027-028-034-036>038-045-046-048>050-GAZ119-141-261700-
...LAKE AND SUPPLEMENTAL COASTAL OBSERVATIONS...

STATION/POSITION TIME  TEMP    WIND        PRES    WAVE   SWELL
                       AIR SEA DIR/SP/G            HT/PER HT/PER/DIR
                 (UTC) (F)     (DEG/KT/KT) (MB)    (FT/S) (FT/S/D)
WINYAH BAY       1530   72     170/  7     1024.0S
LAKE MURRAY      1620   69     180/  6/ 10 1021.7
ACE BASIN NERRS  1545   74     180/  3     1023.0S
FORT PULASKI     1600   73 62  160/  7/ 10 1023.3
SAPELO ISLAND    1600   75     180/ 10     1023.0

$$

ANZ835-935-AMZ111-154-330-350-352-354-370-450-454-472-261700-
...C-MAN AND BUOY OBSERVATIONS...

STATION/POSITION TIME  TEMP    WIND        PRES    WAVE   SWELL
                       AIR SEA DIR/SP/G            HT/PER HT/PER/DIR
                 (UTC) (F)     (DEG/KT/KT) (MB)    (FT/S) (FT/S/D)
BUOY 41004       1550   72 73  140/ 12/ 16 1023.0R   4/ 9   3/150/ 9
BUOY 41008       1550   66 64  210/  2/  4 1022.6R   4/10   3/110/10
FOLLY BEACH CMAN 1600   67     100/  3/  3 1024.0R
CAPERS NEARSHORE 1608   65      90/  4/  6 1023.4F
FRIPP NEARSHORE  1608   65 62  130/  4/  6 1023.0R


STATION/POSITION TIME  TEMP    WIND        PRES    WAVE   SWELL
                       AIR SEA DIR/SP/G            HT/PER HT/PER/DIR
                 (UTC) (F)     (DEG/KT/KT) (MB)    (FT/S) (FT/S/D)
5E ST. MARYS GA  1600      66                N/A     3/ 9
FRYING PAN BUOY  1610   71 74  150/ 12/ 16 1024.2
BUOY 41025       1550   69 74  160/ 10/ 12 1025.8F   3/ 8   2/170/ 8
CAPE LOOKOUT NC  1600   67     150/  5/  6 1025.0F
BUOY 41002       1550   68 72   90/ 12/ 16 1025.0F   5/10   3/140/10
BUOY 41010       NOT AVBL
ST AUGUSTINE FL  1600   69 68   70/  7/  7 1023.0R


$$




USA.gov is the U.S. government's official web portal to all federal, state and local government web resources and services.